Theta_e
317 316 317 317 317 319 321 322 326 329 328 330 333 328 321 326 329 325 327 329 334 337 337 336 335 336 338 341 339 338 339 342 345 344 345 338 334 335 334 337 339 338 333 330 331 329 328 327 329 334 332 330 331 332 332 327 319 318 323 325 326 329 330 329 327 327 330 331 330 330 331 331 332 333 332 327 326 331 334 332 325 322 321 317 315 316 316 316 314 311 311 310 311 314 321 324 325
316 316 317 316 318 319 320 322 328 333 331 327 328 326 322 327 326 323 326 329 335 337 337 337 336 336 336 337 336 337 339 339 338 338 339 333 333 335 336 340 342 339 332 329 330 327 328 327 328 333 332 330 330 332 330 323 317 319 324 325 327 330 330 330 329 327 329 331 330 330 330 330 331 332 328 326 331 334 334 331 323 322 323 319 316 317 317 316 313 312 311 312 318 323 326 327 328
316 316 316 317 319 319 322 322 326 331 326 323 326 324 323 325 324 327 332 335 337 336 337 337 337 337 336 337 338 340 341 338 337 337 337 332 333 337 339 342 341 337 330 328 328 326 327 328 332 335 331 330 332 331 326 319 316 320 325 326 329 331 331 331 330 328 328 329 330 331 330 330 331 328 326 329 333 334 335 329 322 323 323 319 318 318 318 316 313 313 313 317 325 327 327 328 328
316 317 317 318 319 319 327 328 330 332 324 324 323 323 326 324 327 334 337 337 337 337 337 337 338 338 337 339 339 339 339 339 338 338 338 334 334 338 340 339 338 334 331 328 330 330 328 330 335 336 332 332 332 328 322 316 317 322 326 328 330 331 332 332 331 330 328 328 329 330 330 330 328 326 328 332 334 334 334 327 321 323 322 319 318 318 319 316 314 314 314 318 323 325 325 326 325
315 317 317 319 320 319 325 324 327 328 323 325 321 322 327 324 332 337 337 337 336 337 337 338 339 338 338 339 339 339 339 339 338 338 339 336 334 338 338 336 334 332 331 329 332 333 331 333 336 336 334 332 330 324 318 316 321 324 326 329 330 331 332 332 331 331 329 327 328 328 328 328 325 327 332 333 333 334 332 325 321 324 322 318 318 320 319 317 316 315 316 317 319 322 323 323 323
315 318 318 318 319 317 321 319 321 323 321 324 320 323 325 326 338 337 336 337 337 337 337 338 338 338 338 338 338 339 339 340 339 338 339 337 336 338 336 334 332 331 333 333 334 334 333 336 336 335 333 331 327 320 315 317 324 325 327 330 330 331 331 331 331 331 330 327 327 327 326 325 326 330 332 332 333 332 328 323 323 325 322 318 319 320 319 318 317 316 317 318 320 322 323 323 323
316 318 318 318 318 317 324 322 319 320 319 319 317 320 322 328 337 336 337 337 337 337 337 338 337 338 338 338 338 337 338 339 338 338 339 338 338 337 334 334 334 335 337 337 337 337 337 337 336 334 333 329 322 316 315 319 325 326 328 331 331 331 331 331 331 331 330 328 328 326 324 326 330 332 332 332 331 328 324 322 325 327 323 319 320 320 319 317 317 317 318 320 322 322 322 323 323
317 318 317 320 321 319 325 322 318 320 316 316 319 326 329 330 334 336 338 337 339 338 338 338 336 339 339 338 338 337 338 338 338 338 338 339 338 337 335 336 337 338 338 337 337 337 338 337 336 334 331 323 317 315 316 322 326 328 330 331 332 332 331 331 331 331 329 328 327 326 326 330 332 332 332 332 329 324 320 320 324 327 325 322 320 320 319 317 317 318 319 320 322 322 322 323 323
317 318 316 320 321 320 323 318 317 318 315 320 328 335 335 332 334 337 339 338 338 338 338 338 336 339 339 338 339 337 338 338 337 337 338 339 339 338 337 337 337 337 337 336 336 336 336 335 334 333 328 320 316 315 317 324 328 331 332 332 332 332 331 331 331 331 328 326 326 327 330 332 332 332 332 332 328 321 318 318 322 327 326 325 322 320 319 317 318 319 320 321 323 324 323 324 325
317 318 316 320 322 321 321 317 318 316 316 327 334 336 336 334 336 336 338 338 337 336 337 337 336 338 338 338 338 338 338 337 336 337 339 339 338 339 338 337 336 336 335 334 334 334 334 333 332 330 325 321 319 316 318 324 327 331 333 332 333 333 332 331 331 331 330 328 327 328 331 332 332 333 332 332 329 321 318 319 321 326 326 326 324 321 319 318 319 320 321 322 324 325 324 324 325
318 316 317 322 324 321 318 318 321 318 321 333 336 336 336 335 336 335 336 336 336 336 335 336 336 337 337 338 338 338 337 337 338 337 338 339 338 337 337 336 335 334 333 333 333 333 332 330 329 326 323 323 321 317 318 322 326 330 332 332 333 333 332 331 331 331 331 330 329 330 330 331 332 333 332 331 330 325 322 321 321 324 325 326 326 323 321 319 319 321 322 324 325 325 324 325 325
317 317 323 326 322 319 318 319 319 322 330 337 337 336 336 335 336 335 335 336 335 335 335 335 336 336 337 338 337 338 338 338 340 339 337 338 337 336 335 334 332 331 332 332 334 332 331 328 327 324 322 324 323 319 318 322 326 330 331 332 332 332 332 331 331 331 331 331 332 331 331 332 332 332 332 332 332 329 325 324 323 324 324 324 326 326 323 319 320 321 324 325 325 325 325 325 325
317 316 326 325 318 319 320 318 320 334 341 337 336 335 335 335 336 335 335 336 335 336 336 334 335 335 336 338 338 339 339 337 340 340 338 338 337 336 333 330 330 331 332 332 332 331 329 326 323 320 320 323 323 320 321 324 327 329 330 331 331 332 332 332 332 333 333 333 333 333 333 333 332 333 332 332 333 332 329 327 326 326 325 323 324 327 325 321 319 321 324 325 325 326 326 326 326
317 316 324 321 316 319 318 316 326 343 342 335 336 334 335 335 335 335 335 338 336 336 335 333 334 335 336 338 338 339 338 337 340 340 338 338 336 334 331 331 331 330 331 330 329 327 324 321 318 318 318 319 321 321 323 326 328 328 329 330 330 331 331 332 332 333 332 333 333 333 334 333 333 333 332 332 332 333 331 329 328 328 327 325 323 326 328 324 320 320 323 325 325 326 326 326 327
315 314 323 323 317 317 316 318 330 345 341 335 337 333 334 334 335 334 334 338 336 334 334 334 334 335 336 336 338 340 338 339 340 339 337 337 334 332 331 331 329 324 324 324 324 322 320 319 318 317 316 316 321 323 323 325 326 327 329 329 330 330 331 331 332 332 332 332 332 332 333 333 333 333 332 332 332 333 333 332 330 329 329 328 324 324 328 327 322 320 321 324 325 326 326 326 327
315 314 323 323 318 316 319 329 335 344 342 335 335 333 335 334 333 334 333 335 334 333 334 333 333 333 335 335 338 339 339 340 340 338 335 333 330 329 329 327 323 320 319 319 319 318 318 318 317 317 316 319 325 324 323 323 323 325 327 328 329 330 330 330 331 332 332 332 332 332 332 332 332 332 331 331 331 331 332 333 332 330 328 328 326 323 325 329 325 321 321 322 324 326 326 326 326
313 316 323 321 318 316 322 337 340 341 340 335 334 333 338 337 333 334 334 334 333 333 333 333 333 333 335 336 338 338 339 340 338 336 330 326 327 326 326 322 320 318 317 317 317 317 318 317 317 317 318 323 327 325 324 323 323 324 325 326 326 327 328 329 330 330 331 331 331 331 330 330 331 331 331 330 330 330 330 331 332 331 329 327 326 323 322 327 328 323 321 322 323 325 326 325 326
315 318 321 318 319 318 320 332 335 337 339 335 334 332 336 339 333 333 334 333 332 332 333 333 333 334 336 337 338 338 338 338 335 331 326 325 326 323 322 320 318 317 316 317 318 319 319 318 318 317 320 325 327 326 325 325 326 326 326 326 325 326 326 325 326 327 327 328 328 329 329 330 330 331 330 330 331 330 330 330 330 331 330 328 326 324 320 324 328 325 322 322 322 324 325 325 325
316 317 317 319 320 317 313 322 330 336 339 334 333 333 333 335 332 332 333 331 331 332 332 332 334 335 335 336 337 338 338 336 330 327 325 325 323 320 319 318 317 317 317 319 319 320 320 320 320 321 324 326 326 325 325 325 326 326 326 326 325 326 326 326 327 325 325 326 326 326 328 329 330 330 329 329 329 329 330 330 329 329 330 331 328 326 321 321 326 327 324 322 323 323 324 325 325
314 313 316 320 318 314 313 323 333 335 335 333 333 333 332 333 331 331 331 331 331 331 332 331 333 334 334 336 336 337 337 334 328 327 327 324 321 319 319 318 318 319 319 320 320 321 320 318 320 322 323 323 324 325 324 323 323 323 323 323 324 325 326 328 329 325 324 325 325 324 326 328 329 329 329 328 328 327 328 329 329 328 328 328 328 327 323 319 321 326 326 324 325 325 324 324 325
312 312 318 315 311 319 323 328 335 333 333 334 333 334 333 333 333 330 329 332 333 330 330 330 332 333 333 334 335 336 335 331 328 328 327 323 320 320 319 319 319 320 320 321 321 320 318 317 321 323 324 324 324 324 324 325 324 322 323 324 326 328 329 330 330 328 327 326 325 324 325 326 327 327 328 327 327 326 327 327 327 327 327 326 326 326 324 320 318 322 326 327 328 329 328 326 325
312 311 315 312 315 333 334 329 335 333 334 334 333 335 334 333 332 330 331 334 334 330 330 330 331 332 332 333 334 334 332 329 327 326 325 321 320 320 320 320 321 321 320 320 320 320 319 322 325 326 327 328 327 327 325 325 326 326 327 328 330 330 330 330 329 330 329 328 326 325 325 325 325 326 326 326 327 326 327 327 327 326 327 328 326 325 326 324 320 319 323 326 328 330 331 330 328
312 311 310 311 321 337 335 332 335 334 334 333 333 334 333 332 332 331 332 333 333 331 331 330 331 331 331 332 332 332 330 327 326 325 323 321 321 320 320 321 321 321 320 320 320 322 324 327 328 327 328 330 331 331 328 326 326 328 329 329 329 329 330 330 330 330 330 330 329 327 327 326 326 326 326 325 326 327 327 328 328 327 327 329 328 328 329 327 324 320 320 323 326 330 332 333 332
313 312 308 313 326 334 335 335 335 334 334 333 333 333 331 332 332 331 331 332 333 332 331 330 331 330 329 330 330 330 329 326 326 325 324 323 322 321 321 321 321 321 321 323 324 325 328 330 330 330 330 332 332 332 331 329 328 329 329 329 330 330 331 331 331 332 332 332 331 330 329 329 328 328 328 327 326 326 326 327 327 327 328 329 329 329 330 329 327 322 321 322 323 328 332 333 333
312 311 309 320 332 334 335 335 334 334 333 333 333 331 330 331 331 330 331 333 333 333 332 331 331 330 330 329 329 329 329 327 327 327 326 325 323 323 324 323 324 325 326 326 327 329 331 331 332 331 331 332 333 332 332 331 330 330 330 330 331 331 331 331 331 331 332 332 332 331 330 330 330 329 329 328 328 327 326 326 326 326 327 328 329 330 329 330 329 327 326 327 326 325 327 330 332
310 315 321 329 334 333 334 333 333 333 331 332 331 330 330 330 331 331 331 333 333 333 332 332 331 331 330 330 329 330 330 329 328 326 326 325 324 325 326 327 328 328 328 328 330 331 331 331 330 330 330 331 331 332 331 330 329 329 329 330 330 331 331 331 331 331 331 331 331 330 330 329 329 328 328 328 328 328 328 328 328 328 327 326 327 329 330 330 330 330 329 330 330 328 327 329 331
318 326 332 333 333 332 333 333 332 332 331 330 331 331 330 329 332 333 331 331 332 332 331 331 331 331 330 331 331 330 331 330 329 327 325 324 325 327 328 329 329 328 329 330 332 332 331 330 328 328 330 332 332 331 330 329 328 330 330 330 331 332 333 333 332 331 331 331 331 330 330 329 329 328 328 327 328 328 328 328 328 328 328 327 326 327 328 330 330 331 331 330 331 331 330 330 331
330 334 334 332 333 332 331 331 331 331 331 330 330 332 330 329 332 333 330 331 331 331 331 331 331 330 330 332 331 331 331 331 331 329 328 327 328 329 329 328 328 328 329 331 333 333 332 330 326 325 327 329 330 328 327 329 331 333 332 331 331 331 332 332 331 330 329 330 330 330 329 329 328 327 326 326 326 325 326 327 328 329 329 329 327 327 327 327 329 330 331 331 331 331 331 331 331
333 333 334 332 332 333 332 331 330 331 332 330 328 332 334 331 330 331 330 330 332 331 331 332 332 331 330 333 332 331 332 331 331 331 329 329 329 329 328 328 327 328 331 333 332 331 331 329 327 326 326 326 326 325 327 329 331 332 332 330 329 329 329 327 325 325 324 325 326 326 326 326 326 325 325 324 323 323 323 324 326 328 329 330 329 329 328 327 327 328 329 330 331 331 331 331 331
333 331 332 334 334 334 333 332 331 332 332 328 326 334 339 333 329 330 330 330 331 331 330 331 332 331 331 333 331 330 331 332 332 331 329 329 328 328 327 328 329 331 332 332 329 328 327 328 328 328 328 327 325 325 326 327 329 329 329 329 328 327 326 325 323 322 322 322 322 323 324 324 324 324 324 323 323 323 323 323 324 326 327 328 329 329 329 329 328 327 327 328 329 330 331 331 332
328 327 326 330 334 335 332 331 332 332 332 328 328 337 339 334 331 330 330 331 331 331 330 330 331 331 331 332 331 330 331 332 332 331 330 329 329 328 329 330 331 332 331 328 327 326 326 327 327 327 327 326 325 324 324 324 325 325 325 325 325 324 325 325 324 323 323 323 323 323 323 324 324 324 323 323 324 324 324 324 324 324 324 325 326 327 328 329 329 328 328 327 327 328 329 330 331
320 326 325 322 330 335 331 330 331 332 331 328 330 339 338 333 331 330 331 331 330 330 330 330 330 330 330 330 330 330 330 332 333 333 332 332 332 332 332 333 332 331 329 328 327 327 326 326 324 323 322 321 321 320 320 320 320 320 320 321 321 322 323 323 324 324 324 324 324 324 323 324 324 324 324 323 324 325 325 325 325 325 324 324 324 325 326 327 328 329 329 328 327 327 327 328 329
316 322 323 316 324 331 328 328 328 328 329 327 328 335 336 332 331 330 331 330 330 329 328 329 330 329 330 330 330 330 331 332 333 333 334 333 333 333 333 333 331 330 329 329 328 326 324 321 320 318 317 316 316 315 315 315 315 315 316 317 319 319 320 320 321 321 323 323 324 324 323 323 323 324 323 323 324 325 326 326 327 328 328 326 325 324 325 326 327 329 330 329 328 327 326 327 328
315 317 319 314 319 327 328 326 324 324 327 329 329 331 333 332 329 329 330 330 329 327 326 327 329 330 330 330 330 332 332 333 333 333 334 334 333 333 333 332 331 330 330 329 326 323 319 317 316 314 314 313 313 313 312 311 310 310 310 312 313 313 313 312 312 313 315 317 318 318 318 318 321 323 322 321 322 324 326 326 327 329 330 329 327 325 325 326 327 329 330 330 330 328 327 327 327
315 316 318 314 316 323 324 321 322 325 329 331 330 331 332 330 328 328 329 330 328 325 325 327 327 328 329 328 329 331 333 333 333 333 333 333 333 333 332 331 331 330 327 324 320 318 316 315 314 312 311 311 311 310 309 308 306 306 306 306 307 307 306 305 305 306 307 308 308 309 309 310 314 317 318 318 320 322 324 325 326 328 330 330 329 328 328 328 328 329 329 330 330 330 329 328 327
317 316 317 316 316 317 317 319 323 327 332 331 330 332 331 330 328 328 329 329 327 325 325 326 326 327 328 328 328 330 333 332 331 331 332 332 331 331 331 329 327 324 321 318 317 316 314 313 312 311 310 309 309 308 306 305 304 304 304 304 304 304 304 304 304 304 304 304 304 304 305 305 306 308 310 313 317 321 322 323 324 325 326 328 328 328 327 328 328 328 327 328 329 330 330 330 329
317 316 317 316 316 316 315 320 322 325 331 331 331 333 330 328 328 327 328 327 326 325 325 326 326 327 329 329 329 329 330 330 329 330 330 330 329 329 327 324 321 319 317 317 315 314 313 312 311 310 309 308 306 306 305 305 304 305 305 305 305 304 305 305 304 305 305 304 304 304 305 305 306 306 307 310 314 318 321 322 322 323 323 323 324 325 324 325 326 327 326 326 326 327 328 329 329
317 317 317 315 315 317 314 319 322 323 331 333 331 332 329 327 329 328 328 327 326 325 324 325 325 327 328 329 329 328 328 328 328 329 328 327 326 324 322 319 317 317 316 315 313 312 311 310 309 308 307 306 305 305 305 304 304 304 304 304 305 304 304 304 304 304 304 305 305 306 306 307 308 308 308 310 315 318 321 322 322 322 322 320 321 322 321 321 322 324 324 325 325 325 326 327 328
320 317 316 315 315 317 313 318 322 321 332 338 330 330 331 328 329 329 329 328 326 326 324 324 325 326 325 326 329 328 327 328 328 328 327 325 323 321 319 318 316 315 313 312 311 310 310 309 308 307 306 305 305 304 304 304 304 304 304 304 304 304 304 305 305 306 307 309 310 311 311 311 311 311 310 312 318 321 322 323 323 323 322 321 319 318 318 318 319 321 322 323 324 324 324 325 327
319 318 318 317 315 317 315 316 318 320 330 334 329 329 330 328 329 329 329 329 327 326 325 324 325 326 324 324 326 327 328 328 328 328 327 325 321 319 317 316 314 311 311 310 309 309 309 308 307 307 306 305 304 304 304 304 304 303 303 303 303 304 305 307 308 310 311 313 314 315 316 316 315 313 310 312 319 323 323 324 324 323 322 320 317 316 318 319 320 321 322 323 323 323 323 324 325
317 320 322 320 317 318 317 314 316 322 326 328 328 330 331 330 329 329 329 329 328 326 326 325 325 326 325 324 324 325 328 328 328 328 327 324 320 318 316 313 311 310 310 309 309 309 308 307 306 305 305 304 304 304 304 304 304 303 303 302 303 304 306 308 310 312 314 315 316 317 318 319 317 314 310 311 317 322 324 324 324 323 322 319 317 318 321 322 323 323 323 323 322 322 322 322 323
317 319 322 322 320 317 316 314 316 325 329 327 325 328 333 331 328 329 329 328 328 326 325 325 325 325 325 325 324 324 326 328 329 329 327 323 319 316 314 312 311 310 310 309 309 308 307 306 305 305 305 304 304 304 304 304 303 302 302 303 304 306 309 312 315 316 317 318 318 319 319 320 319 317 313 311 315 320 322 322 322 322 320 319 319 320 320 320 321 323 323 323 322 322 322 322 322
319 318 318 320 320 317 316 315 317 325 327 324 321 322 329 330 328 329 329 329 329 327 325 325 325 326 325 325 324 323 323 326 328 328 326 321 317 315 314 312 311 310 309 308 307 306 306 306 305 305 304 304 304 304 304 303 302 302 303 306 309 312 315 317 318 319 319 319 320 320 320 320 321 320 318 315 315 317 319 321 321 320 320 320 320 319 318 318 319 321 321 322 322 323 323 323 323
318 316 316 318 318 317 317 317 318 321 321 320 320 320 322 327 328 326 327 330 329 328 326 325 325 326 326 325 324 323 322 325 327 327 324 319 317 315 313 311 310 309 308 307 307 307 306 305 305 304 304 304 304 304 303 302 302 303 305 310 314 317 318 319 319 319 320 320 320 321 321 321 321 321 321 320 319 318 318 318 319 319 319 319 319 319 319 320 320 321 322 322 322 322 323 323 323
317 315 314 316 316 316 317 316 319 321 319 319 320 317 317 326 328 322 325 330 328 329 328 325 325 325 326 326 325 324 323 324 326 325 321 318 317 315 312 310 309 308 308 308 307 307 305 305 305 305 305 304 303 303 302 301 303 306 309 313 315 317 318 319 319 319 320 320 321 321 321 321 321 321 322 322 321 320 319 319 318 318 318 319 320 320 321 321 322 322 322 322 321 321 322 323 323
314 313 315 316 315 318 319 317 322 322 318 319 322 318 315 325 330 323 325 329 327 328 327 325 324 324 326 326 325 325 324 323 324 323 320 318 317 315 312 309 308 307 307 307 306 305 304 305 305 305 304 304 303 302 302 303 306 309 312 315 316 317 318 318 319 319 319 320 321 321 321 321 321 321 322 322 322 322 321 321 320 320 320 320 321 321 322 323 323 322 321 321 321 320 320 321 321
310 314 319 319 320 326 327 327 326 321 321 325 324 320 314 320 331 328 327 331 329 327 326 325 324 323 325 326 326 326 324 323 323 322 319 318 318 314 311 310 309 309 308 306 305 304 304 305 305 305 304 303 302 301 302 304 306 310 313 315 316 317 318 318 318 318 318 319 319 320 320 320 321 321 322 322 322 322 321 321 322 321 322 321 321 322 322 322 321 321 321 320 320 320 320 321 322
313 321 322 318 322 326 328 329 325 320 325 327 322 320 314 317 329 328 323 326 326 325 326 325 323 322 324 324 326 326 324 324 323 322 320 319 318 314 312 312 311 311 311 307 304 304 305 305 305 305 303 302 302 301 302 304 306 310 314 316 316 317 317 318 318 317 317 318 318 319 319 320 320 321 321 321 321 321 321 321 321 321 321 321 321 321 321 321 321 321 321 321 321 321 322 323 323
320 327 329 325 325 324 325 328 323 320 325 322 319 321 317 319 327 325 321 320 319 320 322 323 321 321 323 323 324 325 325 324 323 323 321 320 318 314 314 313 310 313 312 307 304 305 305 306 305 304 303 302 302 301 302 303 305 309 313 315 315 316 317 317 317 317 317 317 317 318 318 318 318 319 320 320 320 320 320 320 320 321 321 322 322 322 322 322 322 322 322 323 323 323 323 323 324
319 323 328 328 328 324 325 327 321 320 324 320 318 321 321 323 323 321 323 319 314 314 316 320 321 320 321 322 323 324 325 324 324 324 322 321 319 315 314 312 310 313 311 306 305 305 306 305 304 303 303 302 302 302 303 304 306 310 312 313 314 315 315 316 317 317 316 316 316 316 317 317 317 318 319 320 320 321 321 320 320 320 320 321 322 323 323 323 323 323 324 323 323 323 323 323 324
317 320 321 322 330 328 323 326 325 324 326 321 318 320 326 327 320 318 319 314 312 314 314 316 319 320 321 321 322 323 324 324 324 324 323 322 320 317 315 311 309 311 309 306 306 306 306 305 305 306 304 302 302 302 304 305 307 310 312 313 313 313 314 315 316 316 316 317 317 317 317 317 317 318 319 320 320 321 321 320 320 319 319 319 321 322 322 322 323 323 323 323 322 322 323 323 323
314 315 318 317 325 331 323 320 324 324 322 321 319 321 326 325 319 317 316 315 315 314 313 314 316 318 320 320 321 322 323 324 323 324 324 323 321 319 316 311 308 309 309 308 306 307 307 307 308 308 305 303 303 303 303 304 307 310 312 312 312 312 313 314 316 316 317 317 317 318 318 318 318 319 319 320 320 320 321 321 320 320 319 318 318 320 321 321 322 323 323 323 322 322 323 323 322
317 315 319 317 317 328 326 316 318 319 318 323 321 321 326 322 317 321 322 324 324 317 315 316 315 318 319 320 321 321 322 323 323 323 324 324 322 320 317 311 308 311 311 308 307 307 308 309 310 310 307 304 303 303 303 305 306 307 309 310 310 311 312 314 315 317 317 318 318 318 319 319 320 320 320 320 320 320 320 320 319 319 318 316 317 320 320 320 321 322 322 321 321 322 322 322 322
319 317 319 317 314 324 327 321 323 321 320 327 323 320 327 324 321 326 324 325 329 324 319 317 317 319 319 320 321 321 322 322 322 323 323 324 322 321 318 311 309 312 311 308 308 308 309 310 311 311 309 305 303 303 303 305 304 303 305 308 310 312 313 314 316 317 318 318 318 318 319 319 320 319 320 320 320 320 319 318 317 316 316 315 317 319 320 319 320 319 320 321 321 322 321 320 320
314 315 316 316 318 326 326 322 326 322 318 327 326 320 321 322 327 331 323 325 333 327 321 321 320 319 319 320 320 320 321 321 322 322 323 323 323 322 318 311 311 313 310 308 309 310 310 311 311 311 310 306 304 304 303 304 304 302 303 307 311 313 314 315 317 317 317 318 318 318 318 318 318 318 318 318 318 318 317 316 315 315 315 315 317 319 319 318 318 318 320 321 321 321 320 319 319
314 315 316 318 324 328 323 319 323 323 319 323 325 322 323 325 330 333 326 329 334 329 328 325 320 318 320 320 320 320 321 321 322 322 322 323 323 322 318 311 312 313 310 309 310 311 311 311 311 311 310 307 305 305 305 304 303 302 302 306 310 313 314 315 316 317 317 317 317 317 317 317 317 316 316 316 315 315 315 315 315 315 315 315 316 318 318 317 317 318 320 320 319 319 319 318 318
319 319 318 321 322 318 317 317 319 322 323 325 324 324 331 333 328 327 326 329 331 329 331 326 317 318 321 319 320 321 320 321 322 322 322 322 322 323 317 311 313 314 309 309 310 311 312 311 311 311 311 308 306 306 306 304 303 302 302 305 310 312 314 315 316 316 316 316 316 316 316 316 316 315 315 314 313 314 315 315 315 315 315 314 315 316 317 318 318 319 319 319 318 318 317 317 316
324 321 318 325 326 321 321 321 320 321 321 324 323 322 332 335 325 324 325 324 322 319 320 320 316 318 320 320 321 321 320 321 321 321 322 322 323 322 317 312 314 313 309 310 312 312 312 312 312 312 311 309 307 307 306 304 303 303 303 306 310 313 314 315 316 315 315 315 315 315 315 315 314 314 314 312 311 312 314 315 315 314 313 313 313 316 318 318 317 318 318 318 317 317 316 316 316
Wind_Speed
3 5 6 7 8 4 3 3 1 2 2 1 3 0 1 4 3 1 1 3 0 4 5 8 12 12 10 10 10 8 6 5 5 3 3 6 11 13 14 17 15 12 12 14 15 15 15 16 13 12 12 9 8 7 5 4 5 7 8 11 12 13 13 13 13 13 14 13 13 13 14 14 14 14 14 14 13 13 12 11 11 11 11 11 10 10 10 9 8 6 6 6 6 8 10 12 13
3 4 6 6 7 4 2 3 1 2 4 2 3 1 2 4 1 2 4 3 3 6 11 19 21 17 17 20 14 7 6 4 4 5 6 11 14 16 18 16 13 16 19 16 15 16 17 17 15 16 15 11 9 6 5 4 5 7 9 11 12 13 13 13 12 12 13 13 12 12 13 13 13 12 13 13 12 12 12 11 11 11 11 11 11 11 10 9 8 8 7 8 9 10 11 12 12
3 4 5 4 5 3 1 3 1 2 3 1 4 3 2 4 2 1 0 6 12 16 14 15 18 14 11 13 8 4 3 4 5 8 9 12 14 18 17 10 12 21 19 15 16 16 17 18 18 20 18 14 10 7 6 5 6 9 11 12 12 12 12 12 12 11 11 12 12 11 12 12 12 11 12 12 11 11 11 11 11 10 11 11 11 11 11 10 9 8 8 9 10 10 11 11 10
4 5 4 3 3 2 3 3 1 4 1 2 2 4 3 3 1 4 7 15 18 13 5 4 9 8 6 7 5 4 2 2 7 10 9 11 15 18 14 8 16 23 19 18 19 18 19 20 20 21 20 15 11 8 6 6 8 10 12 12 12 12 11 11 11 11 10 11 11 11 11 11 11 11 11 11 11 11 10 10 10 10 11 11 11 11 11 11 10 9 8 9 9 10 10 10 10
5 5 4 3 1 1 3 3 1 4 1 2 1 4 5 3 2 5 8 12 9 4 4 0 5 7 9 9 4 2 2 2 6 10 10 13 16 15 14 16 18 19 19 19 19 20 20 20 21 21 19 15 12 9 7 8 10 12 12 12 12 11 11 10 10 9 9 10 11 11 10 10 10 11 10 10 10 10 9 10 10 11 11 11 12 12 12 12 11 10 9 9 9 9 9 10 11
4 4 4 3 3 2 2 2 1 1 3 4 0 5 6 4 6 7 9 8 3 2 1 3 7 11 8 7 5 3 2 1 5 11 13 15 15 15 17 18 16 16 17 17 17 18 19 20 20 19 17 14 12 10 9 10 11 12 12 12 12 11 11 10 9 9 9 10 10 11 10 9 10 10 9 9 9 9 9 10 11 11 11 11 12 12 12 11 10 9 9 9 8 8 8 10 12
3 3 3 3 4 3 3 2 2 1 2 4 2 5 7 4 10 11 9 7 6 6 7 8 12 14 6 3 5 3 4 4 8 12 15 15 15 17 18 17 16 16 16 16 17 17 18 18 18 17 15 13 12 11 11 12 12 13 13 12 11 11 10 9 9 8 9 10 10 11 10 10 10 9 9 8 8 9 9 11 11 11 12 12 12 12 11 10 9 9 8 8 7 6 8 9 11
3 2 3 3 2 4 4 2 1 2 1 1 3 6 12 6 11 7 4 4 4 6 10 11 11 10 3 1 3 4 8 8 11 14 16 15 15 17 16 16 16 15 15 16 17 17 17 17 16 15 14 14 12 12 12 13 13 13 13 12 11 10 9 9 8 8 9 10 10 11 11 10 9 8 8 8 8 9 10 10 11 11 11 12 12 12 11 9 8 8 7 7 6 6 7 8 9
3 2 3 3 2 3 3 2 2 2 2 3 4 9 16 2 10 4 5 7 7 7 6 3 4 6 5 4 4 5 10 11 14 17 17 14 15 16 16 17 16 15 15 16 18 18 17 16 16 14 14 14 13 12 13 13 12 13 12 11 11 10 9 9 8 9 9 10 10 10 10 9 8 7 7 7 8 9 10 10 11 11 11 12 12 12 11 9 7 7 6 5 4 4 5 6 7
3 3 2 3 3 3 3 2 2 2 3 3 4 11 17 6 11 9 7 8 8 8 4 3 4 10 10 7 4 5 10 13 14 16 15 13 16 17 16 17 16 15 16 17 18 18 18 15 14 14 13 13 12 12 13 12 12 12 12 11 10 9 9 9 9 9 9 9 9 9 8 7 7 6 6 6 7 9 9 10 11 10 11 11 12 12 11 9 7 6 5 4 2 1 3 4 6
2 4 3 4 4 3 1 2 3 3 3 3 6 13 16 11 13 11 10 9 9 9 8 8 11 14 12 5 6 8 13 14 11 13 14 14 18 17 16 17 16 16 17 18 18 19 18 15 13 13 13 13 12 12 12 11 11 12 11 10 10 9 8 8 8 8 8 8 8 7 6 6 6 5 5 5 6 7 8 9 10 10 11 11 11 11 10 9 7 5 5 4 3 1 3 4 5
1 2 3 4 2 2 3 2 3 2 4 3 5 12 13 12 10 7 9 8 7 8 4 6 12 15 9 4 10 11 13 15 10 13 16 15 18 18 17 16 15 16 17 18 18 18 18 16 14 13 14 13 11 12 12 11 11 11 10 10 9 8 8 8 7 7 7 7 7 7 6 5 5 5 5 5 5 6 7 7 9 10 10 11 10 10 10 8 7 6 5 5 4 1 4 4 4
2 1 4 3 2 3 3 2 2 2 4 2 4 8 9 10 8 4 6 6 3 4 3 8 16 10 4 5 10 10 13 16 12 15 18 16 17 18 18 16 16 15 16 17 16 17 17 15 14 13 13 12 11 11 12 11 10 10 9 9 8 8 7 7 7 6 6 5 5 5 5 4 4 4 4 4 4 5 5 5 6 7 9 9 9 9 9 7 6 6 6 6 5 2 4 4 5
3 2 4 3 1 2 2 1 1 2 2 3 3 6 7 6 5 5 7 6 5 5 6 11 11 3 4 6 7 11 14 16 13 17 19 16 16 17 19 17 16 16 16 16 15 15 14 14 13 11 11 10 10 10 10 10 10 9 8 7 7 7 6 6 6 5 4 3 4 3 3 3 3 2 2 2 2 3 4 4 4 5 7 8 8 8 8 7 6 6 7 8 6 4 2 4 5
3 2 4 3 2 1 1 0 1 3 0 2 3 5 7 6 4 7 8 5 3 6 10 9 5 2 4 5 5 13 17 16 16 19 19 18 17 18 18 17 17 18 16 14 14 13 12 13 12 10 9 7 7 8 9 9 9 8 8 7 7 7 6 6 5 4 4 4 3 2 2 2 2 2 2 1 1 3 3 4 4 5 5 6 6 7 7 7 5 5 7 8 8 6 3 3 3
4 3 5 3 1 0 1 1 2 3 1 2 2 2 5 5 5 6 5 4 6 7 7 4 3 1 4 6 7 16 20 18 19 20 20 19 19 19 18 17 18 18 16 15 14 12 11 12 11 10 8 5 6 8 8 8 9 8 7 7 7 6 5 5 5 5 4 4 4 3 3 3 3 2 2 1 2 3 4 4 4 5 5 5 4 5 6 7 5 4 6 8 9 8 6 5 4
3 3 5 3 2 2 2 3 3 3 3 4 3 3 2 2 5 7 3 6 8 5 3 1 2 5 8 10 12 18 20 20 21 20 21 20 20 19 18 19 19 18 16 14 15 13 11 10 10 10 7 6 6 7 7 8 8 7 7 6 6 6 5 4 4 4 3 3 4 4 4 4 4 4 4 3 3 3 3 4 4 4 5 5 4 3 4 5 5 4 6 8 9 9 8 6 5
2 3 4 2 2 3 4 5 5 4 4 4 4 6 7 3 5 9 6 7 8 7 6 5 8 12 13 12 15 18 19 21 23 22 22 21 20 20 20 19 18 17 15 15 17 16 13 13 10 7 5 6 6 6 6 6 6 6 6 5 6 6 5 5 4 4 4 3 4 4 4 5 5 5 5 5 4 4 3 3 4 4 5 5 5 3 2 3 4 4 5 7 8 9 9 7 6
3 3 3 3 4 5 4 8 9 7 7 6 9 11 8 8 11 9 4 5 7 7 8 9 13 13 13 14 16 18 19 21 22 22 22 22 21 21 20 18 17 16 16 19 20 18 18 17 10 4 4 5 5 5 4 4 4 4 4 4 4 5 5 4 4 4 4 4 4 4 4 4 5 5 5 5 5 4 4 4 4 4 4 5 5 5 3 0 3 3 4 6 7 8 8 7 7
4 3 2 4 6 5 3 10 13 14 18 12 10 10 8 9 9 6 7 7 4 4 5 7 12 12 13 14 15 18 19 19 20 21 22 23 22 21 19 17 17 18 20 23 21 20 19 13 7 4 4 3 3 4 3 3 2 3 3 3 4 5 4 3 4 3 3 4 4 5 4 3 5 5 5 5 4 4 4 4 5 5 4 4 4 4 3 2 1 2 3 5 6 6 6 7 7
3 4 4 4 6 2 3 10 17 19 23 17 11 9 7 5 5 8 10 7 2 1 3 5 12 14 13 14 15 16 17 17 18 18 20 22 21 20 18 17 18 19 22 23 21 18 12 6 5 4 4 3 3 3 3 3 3 3 3 4 4 4 3 3 4 4 3 2 3 4 4 3 5 6 6 5 4 4 4 4 4 4 5 5 4 3 2 2 1 1 3 4 4 4 5 6 6
3 4 7 6 6 2 1 14 22 20 19 16 12 7 5 4 6 7 5 4 2 2 3 10 15 14 14 14 14 15 15 15 16 17 18 19 20 19 18 18 19 18 19 19 16 10 6 5 4 4 5 5 4 3 2 2 2 2 2 2 2 2 2 1 2 2 3 2 2 3 3 3 4 5 6 6 4 4 4 3 3 3 4 5 4 3 3 2 2 2 2 3 4 4 4 4 6
3 2 6 7 6 5 9 19 22 19 17 12 9 8 7 8 7 4 5 6 3 3 6 13 15 14 15 14 13 14 14 14 14 15 16 17 19 19 18 17 16 16 15 14 10 6 4 5 5 5 5 4 4 4 2 1 1 1 1 1 1 1 1 1 2 2 3 3 3 3 3 3 3 4 5 6 5 4 4 4 3 3 3 3 3 3 4 3 1 2 3 3 4 4 4 3 4
5 1 4 7 8 12 17 20 18 18 17 11 12 12 8 7 4 4 7 6 4 5 9 14 14 14 15 13 13 13 12 14 13 14 14 15 17 17 16 14 12 12 10 8 6 5 5 5 5 4 3 3 2 2 2 1 1 0 1 2 2 2 3 3 3 4 4 4 4 4 4 4 4 4 5 5 5 5 5 5 4 4 3 3 3 4 4 3 1 1 2 4 4 5 5 4 4
4 3 3 6 11 16 20 21 19 18 16 15 16 13 10 10 6 4 5 3 4 7 10 13 13 14 14 11 12 11 11 13 12 13 13 13 14 14 12 10 9 7 6 6 6 6 5 4 3 2 1 1 2 2 1 1 1 1 1 2 3 3 3 4 4 5 5 5 5 5 5 4 5 5 5 5 5 5 6 6 6 5 4 4 4 4 4 3 2 2 2 3 5 6 6 5 5
3 4 8 10 12 17 21 20 18 17 14 16 17 13 10 9 5 2 2 2 5 8 11 12 11 12 12 9 10 10 10 11 12 13 14 13 14 11 9 7 6 5 6 7 6 5 3 2 2 1 1 2 2 2 2 2 2 2 2 2 3 4 3 3 4 4 4 5 5 5 4 4 5 5 5 5 5 6 6 7 7 7 6 5 5 4 4 4 4 3 4 4 5 6 7 7 8
10 17 19 16 15 15 17 18 18 16 12 12 13 8 6 7 2 1 2 3 5 7 10 10 9 10 10 8 9 10 9 9 11 13 15 15 13 10 7 6 5 5 5 5 4 3 3 3 2 2 2 2 2 2 2 2 2 2 2 2 3 4 4 4 4 4 4 4 4 4 4 4 4 4 5 5 6 6 7 7 8 7 7 7 6 6 6 6 6 6 6 6 6 7 7 8 9
24 28 21 16 17 15 14 15 15 11 8 12 12 6 5 8 3 2 4 5 6 7 7 7 7 8 9 7 7 8 8 9 10 11 12 13 11 9 7 6 4 3 3 2 3 4 4 4 3 2 2 2 2 2 2 2 2 2 2 3 4 4 4 5 6 6 5 5 5 5 5 5 4 4 5 5 6 6 7 7 7 7 7 8 8 8 8 8 8 8 8 8 8 8 8 8 9
25 25 16 10 12 10 6 6 7 4 7 11 8 4 5 5 2 1 5 5 4 6 5 4 4 6 7 6 8 9 8 7 8 8 8 10 10 9 7 5 3 2 1 2 3 3 2 2 2 2 2 2 3 3 3 3 3 3 4 4 5 5 5 6 7 8 8 7 8 7 7 6 6 5 6 6 6 6 6 6 6 7 8 8 9 9 9 10 10 10 10 10 10 10 9 8 9
16 14 10 8 7 2 2 1 2 3 10 8 6 1 3 5 1 2 5 4 3 4 2 2 2 5 5 5 9 10 8 6 6 9 8 9 10 9 7 5 3 2 2 2 1 1 2 2 3 3 3 3 3 3 4 5 5 5 6 6 6 7 7 8 9 9 9 9 9 9 8 8 8 8 7 7 7 7 6 5 5 6 8 9 10 10 11 11 12 11 11 12 12 12 11 10 10
9 7 5 4 5 3 5 3 1 4 11 1 8 4 5 5 3 3 6 4 2 3 0 1 0 3 5 5 9 11 9 8 7 9 9 9 9 8 7 6 5 3 2 2 2 2 2 3 3 4 4 5 5 5 6 6 6 7 8 8 9 9 9 10 10 11 11 11 11 11 11 11 11 10 10 9 9 9 7 6 6 6 7 9 10 11 12 12 13 13 13 14 13 13 13 13 13
3 5 2 2 3 5 6 7 5 3 7 4 5 4 4 5 4 5 6 3 2 2 2 2 2 1 4 7 9 9 9 9 8 9 9 9 8 8 7 7 6 5 4 3 3 3 3 4 5 6 7 7 7 7 8 8 9 9 10 10 11 11 12 12 12 13 13 13 13 14 14 14 14 14 13 13 12 12 10 8 7 7 7 8 9 10 11 12 13 14 15 15 15 15 15 15 15
4 3 5 1 3 5 3 5 10 5 2 2 2 2 3 4 4 7 5 4 4 3 2 2 2 3 6 8 10 10 10 10 9 9 8 8 7 8 8 7 7 5 4 3 3 4 5 6 7 8 8 9 9 9 10 11 11 12 12 12 13 13 14 15 15 16 16 16 16 17 17 18 18 17 16 16 15 15 13 11 10 9 9 9 10 10 10 11 13 14 15 16 17 17 17 17 16
2 3 3 2 4 5 2 1 9 7 3 2 2 2 5 3 4 10 5 5 6 4 2 6 8 7 7 8 10 12 12 10 10 9 8 7 7 7 7 7 6 5 4 4 5 6 6 7 8 9 9 10 10 11 11 12 13 13 13 14 14 14 15 15 16 17 17 18 18 19 19 20 20 20 19 18 17 16 15 14 13 12 11 11 11 11 10 10 12 13 14 15 17 19 19 19 19
4 3 4 3 3 5 6 3 6 6 4 1 1 2 6 3 4 8 5 7 8 5 3 7 8 8 9 9 11 13 12 11 10 9 8 7 7 6 6 6 6 6 5 6 7 7 7 8 10 10 10 10 10 11 11 11 12 12 12 12 13 13 13 14 15 16 17 18 18 19 20 20 20 21 21 20 19 18 17 15 14 12 12 11 10 10 10 10 11 12 12 13 15 17 19 20 21
8 6 5 6 5 4 6 3 4 8 6 1 3 2 4 2 3 6 6 9 9 6 6 9 7 7 9 10 11 12 12 11 10 9 8 8 8 7 7 7 7 7 7 7 8 8 9 10 11 12 12 12 11 11 11 11 11 11 11 11 12 13 14 15 17 18 18 19 19 19 19 19 20 20 21 22 20 18 17 17 15 14 13 12 11 10 10 10 10 11 12 12 13 14 16 18 20
8 7 6 6 6 4 4 2 3 7 6 1 2 1 1 3 4 6 9 9 9 8 10 13 13 12 12 12 13 13 12 11 10 10 10 9 9 8 8 8 8 8 8 8 9 10 10 11 12 13 13 12 12 12 12 13 13 13 14 14 15 16 17 18 18 19 19 19 20 19 19 18 19 19 20 20 20 19 17 16 16 16 15 15 14 13 12 11 11 12 13 13 13 13 14 15 17
6 6 7 4 3 4 1 3 4 4 5 2 1 3 1 2 4 6 9 8 8 11 12 12 16 16 14 15 17 15 13 12 12 12 11 11 10 10 10 9 9 9 9 9 10 10 11 12 13 13 13 13 13 14 14 15 15 15 16 17 18 18 19 20 20 20 20 19 19 19 19 18 17 17 16 17 17 17 16 16 15 15 16 16 15 14 14 13 13 13 14 14 14 14 14 14 15
5 4 6 4 2 2 3 3 3 1 3 2 1 3 0 0 3 5 7 6 5 10 13 11 15 18 18 19 20 18 15 14 15 15 13 13 12 11 11 10 11 11 10 10 10 11 12 13 14 14 14 14 14 14 15 15 16 17 18 19 20 20 20 20 20 20 19 18 17 17 18 18 17 16 14 13 12 12 12 13 13 14 14 15 15 14 14 13 12 13 14 14 14 14 14 13 13
4 4 5 4 3 2 1 1 2 2 3 4 4 4 2 0 3 4 6 8 5 7 13 14 16 20 21 20 18 18 18 18 18 17 15 14 14 13 12 12 12 11 10 10 10 11 13 14 15 15 15 14 14 14 15 16 17 18 18 19 19 19 18 17 15 15 15 14 13 13 14 14 14 14 12 10 9 8 8 9 9 10 12 14 15 13 12 11 11 12 13 14 14 14 14 13 12
2 3 5 4 4 4 4 4 3 4 6 4 6 4 3 3 5 6 5 8 6 5 11 16 20 23 23 20 18 18 20 21 19 18 18 17 16 15 15 14 12 10 10 11 12 13 14 15 15 14 14 14 14 15 16 17 17 18 18 18 18 16 15 14 13 12 12 12 12 12 12 11 11 11 10 9 10 9 8 8 8 10 13 15 14 11 11 11 12 13 13 13 13 14 14 14 13
3 2 5 6 6 5 6 7 5 4 4 2 3 3 4 3 5 7 4 6 9 6 9 16 22 25 25 25 24 20 21 23 21 20 20 20 19 18 16 14 11 11 11 12 12 13 14 14 13 13 13 14 15 16 16 17 17 18 19 19 18 16 14 13 13 13 13 12 13 13 13 12 11 10 9 7 9 11 12 12 13 15 15 15 13 11 12 13 14 14 15 14 14 14 15 15 15
1 4 6 5 6 7 8 8 4 2 1 3 3 3 3 4 4 7 5 6 9 7 8 14 21 26 27 29 29 25 24 24 23 22 23 22 20 18 16 13 12 12 12 12 12 12 12 12 12 12 12 13 15 16 16 16 16 17 17 16 14 13 12 11 11 11 12 12 13 13 13 13 12 10 9 8 7 9 12 14 15 16 16 14 13 14 14 15 15 15 15 15 15 15 15 15 16
1 4 6 6 6 7 8 7 4 2 2 2 3 3 0 3 5 5 7 7 8 8 10 13 19 26 28 31 32 29 27 25 25 25 24 22 20 17 15 12 12 12 12 11 11 11 11 11 10 11 12 13 15 15 15 14 15 15 14 11 10 9 10 9 9 9 10 10 11 11 12 12 11 10 9 7 7 8 10 12 14 15 15 15 14 15 15 15 14 14 15 15 16 15 15 15 15
3 3 7 5 5 5 5 6 3 1 3 2 3 0 1 4 6 2 5 7 8 11 12 14 19 25 29 32 33 31 28 26 27 27 25 22 19 17 15 12 10 11 12 12 12 11 11 10 10 11 12 12 13 13 13 13 13 13 11 8 7 7 7 8 7 8 8 8 9 10 11 11 10 10 10 8 8 8 9 10 11 12 13 13 13 13 13 13 13 13 13 14 15 14 14 14 15
4 6 7 5 6 5 4 5 4 3 3 3 6 3 2 5 5 2 2 5 8 12 11 14 22 25 28 31 33 32 29 28 28 28 26 22 19 18 15 11 10 11 13 13 12 11 11 10 10 11 11 11 12 12 12 12 12 11 8 6 6 6 6 6 6 6 7 7 8 8 9 10 10 10 10 10 9 9 9 9 10 11 11 12 12 12 12 12 12 12 13 13 13 13 14 14 14
6 6 6 6 5 5 4 3 4 5 1 5 6 5 4 3 5 2 3 5 9 11 9 10 18 25 28 32 34 33 31 31 30 29 27 23 21 19 14 11 12 14 15 14 12 11 10 10 11 11 11 11 11 11 11 11 11 10 8 7 7 7 6 6 7 7 6 7 7 8 9 10 10 10 10 11 11 11 11 10 9 9 10 11 12 12 13 13 12 12 13 13 13 14 14 13 13
6 4 4 4 3 4 4 4 4 4 2 5 4 4 6 3 5 5 7 9 7 8 8 9 15 25 32 34 35 35 33 33 31 30 29 26 23 20 14 15 17 16 15 14 12 11 10 10 11 12 12 11 11 11 11 11 10 9 7 7 7 8 8 8 8 9 8 8 8 8 8 8 9 10 10 10 11 11 11 11 10 10 9 9 9 10 10 11 11 12 12 12 12 12 12 11 11
5 4 5 4 2 3 2 3 2 1 4 3 1 2 3 5 7 6 9 11 10 10 13 15 18 26 33 35 36 36 35 34 33 32 31 28 25 20 16 19 21 16 14 13 12 10 8 9 10 11 11 11 10 10 10 10 9 8 6 6 7 8 8 9 9 10 10 9 9 9 9 9 9 10 10 11 11 11 12 13 13 12 11 9 8 8 8 8 9 9 9 9 9 9 9 7 6
3 3 4 3 2 3 1 3 1 3 3 1 2 2 1 4 5 5 8 11 15 17 21 23 22 24 29 33 34 34 35 36 36 34 32 29 26 21 17 20 21 16 13 12 11 9 7 7 8 8 9 9 9 9 9 9 8 7 6 6 6 7 8 8 8 9 10 10 10 10 10 9 10 10 11 11 11 11 12 13 13 13 12 10 8 7 7 8 9 7 7 8 6 6 7 5 3
1 3 5 3 4 4 2 3 2 3 2 2 3 1 2 2 3 5 7 10 13 17 21 23 23 21 20 23 28 31 34 36 36 36 34 32 27 22 20 22 21 15 12 11 10 7 5 5 5 6 7 7 7 7 7 7 6 6 6 6 7 7 7 7 8 9 10 10 10 10 10 10 9 10 11 10 10 10 11 12 12 12 12 12 9 6 6 7 7 6 6 8 7 6 7 5 4
1 2 4 1 3 4 2 2 4 2 1 1 2 2 4 4 4 5 6 6 7 8 13 17 20 19 15 17 24 29 32 34 34 35 35 34 29 24 23 23 21 15 11 10 10 7 5 3 4 6 7 6 7 6 6 6 6 6 7 8 8 7 6 6 8 9 9 9 10 10 10 10 9 9 11 11 10 10 11 11 12 12 11 11 10 7 6 5 4 4 6 7 7 7 6 7 7
1 1 1 3 3 6 4 1 1 3 1 2 1 2 5 3 3 5 6 5 6 5 4 9 14 15 15 18 23 27 31 33 33 34 34 35 32 27 25 24 21 15 10 11 10 8 5 2 4 6 7 6 7 7 7 7 7 7 9 10 8 6 4 5 7 8 8 9 10 10 10 9 9 10 10 11 11 10 11 12 12 11 11 10 9 6 6 5 4 3 4 6 6 6 6 5 5
1 1 3 3 2 4 4 1 3 4 0 3 2 2 5 3 1 5 6 5 6 5 4 4 7 11 16 21 24 26 29 31 32 33 33 34 33 30 27 25 20 13 10 12 10 9 7 3 4 5 7 7 7 8 8 8 9 9 10 9 6 3 4 5 6 8 8 9 9 9 9 9 10 10 10 11 11 11 12 13 13 11 10 9 7 5 5 6 6 5 4 5 5 6 6 5 5
2 2 2 2 2 0 1 1 0 1 1 3 4 3 3 2 3 4 4 5 6 5 4 3 7 13 19 22 23 25 27 29 31 32 32 34 34 32 29 25 19 13 12 13 11 10 8 4 4 5 6 7 8 9 10 10 11 10 10 8 5 3 5 5 6 8 8 8 8 8 8 9 10 10 11 12 12 12 12 12 12 10 9 8 5 4 4 5 5 5 4 4 4 5 5 5 5
3 2 2 2 2 3 1 1 2 2 1 2 3 4 2 5 5 4 6 8 6 5 5 6 11 18 23 24 24 26 28 30 32 33 33 34 34 33 30 25 19 13 14 15 13 12 10 7 6 6 6 6 8 9 11 12 12 11 10 8 5 3 4 5 6 7 8 8 8 8 9 9 10 11 12 13 13 12 12 10 10 8 8 7 5 3 4 5 5 4 3 3 4 5 6 6 6
2 2 1 1 1 2 1 0 1 3 3 2 1 2 4 6 4 6 8 8 6 8 8 8 15 22 24 25 25 27 30 31 32 33 34 34 34 33 29 24 18 15 16 17 16 14 11 9 8 8 8 7 8 9 11 12 12 11 10 7 4 2 2 3 5 6 8 9 9 9 10 10 11 12 13 13 12 11 10 9 8 7 7 7 5 5 5 5 5 4 2 3 4 5 8 9 10
4 2 3 3 2 2 1 2 2 1 2 3 3 2 7 6 3 5 7 5 7 12 11 11 18 24 25 25 26 27 29 31 32 33 33 33 34 34 29 25 21 19 20 19 17 16 13 11 10 9 9 9 8 10 12 13 12 10 8 5 3 2 1 2 3 5 7 9 9 10 10 11 12 13 13 12 12 10 9 8 8 7 7 6 5 4 4 4 4 3 2 3 4 7 10 11 12
Wind_Direction
327 351 349 348 354 359 359 23 59 353 66 100 298 28 277 249 220 314 229 210 99 13 34 106 125 124 123 117 116 110 107 149 172 139 143 167 170 174 160 151 154 168 160 140 137 136 146 148 147 153 151 150 141 134 124 111 88 90 103 106 107 110 111 107 104 109 117 121 125 129 128 127 126 123 122 117 109 103 102 100 87 79 77 75 76 76 74 71 71 74 77 84 87 87 90 83 76
340 348 349 348 353 357 337 39 75 346 41 10 297 191 280 296 302 248 225 200 138 120 93 98 103 97 105 108 98 77 63 73 174 148 131 163 174 174 164 171 183 162 148 141 140 135 142 146 143 154 157 155 152 145 133 117 97 99 108 109 110 113 116 114 109 114 122 126 129 132 131 129 127 123 119 111 103 100 100 96 84 80 77 73 73 72 71 70 75 83 88 93 95 92 90 85 80
345 342 353 350 353 15 77 47 90 85 55 299 280 262 310 318 302 300 160 118 129 127 109 97 91 81 98 101 68 48 88 79 138 147 146 170 173 175 178 199 180 150 147 151 145 138 143 149 150 154 155 157 158 148 136 116 102 108 113 113 113 116 120 121 116 117 124 130 131 133 133 131 128 124 117 109 102 99 97 90 80 77 75 72 70 69 69 70 77 87 93 96 99 95 92 89 85
352 350 3 9 16 41 67 49 126 116 101 234 280 289 288 280 347 58 94 119 131 134 138 112 79 56 79 90 69 74 117 145 145 151 156 168 165 172 177 166 155 146 148 151 147 147 148 151 151 151 154 158 157 147 134 113 108 116 119 117 116 118 121 124 120 118 123 131 133 134 134 131 126 121 115 107 102 97 92 83 75 72 70 70 69 68 67 70 76 81 87 92 95 92 90 86 81
358 9 18 9 48 75 80 70 95 96 194 202 59 289 271 245 130 99 119 125 142 197 266 280 91 86 82 77 73 87 103 158 171 174 164 161 162 165 156 146 152 149 147 149 147 148 146 146 148 151 154 154 151 143 129 115 114 122 124 121 120 120 122 124 124 120 122 131 135 134 134 129 123 117 109 101 97 92 85 74 68 67 66 68 69 67 67 70 73 74 78 84 86 84 81 75 71
8 35 35 38 95 99 103 85 67 40 240 177 205 269 258 234 153 134 117 102 90 147 12 33 113 114 84 59 59 92 121 139 184 184 167 163 163 155 151 150 154 149 146 146 144 143 142 144 147 149 148 147 143 136 126 118 119 125 126 123 122 123 124 125 125 124 124 130 134 134 134 129 123 116 106 99 93 86 79 71 67 65 65 69 70 68 68 71 74 75 78 82 83 79 71 65 65
17 44 33 72 81 47 106 104 144 275 258 167 272 274 282 264 152 139 120 94 67 85 82 78 108 109 78 45 60 96 152 166 172 174 164 161 159 152 153 154 152 147 144 142 137 135 134 138 140 140 139 136 133 131 127 123 126 127 126 124 122 123 123 121 119 118 120 127 130 131 132 128 123 115 106 99 90 81 75 73 71 68 67 69 71 72 73 76 78 77 80 82 78 68 61 61 63
25 52 47 90 58 24 95 82 199 212 242 202 304 309 311 266 162 140 114 94 87 91 96 95 89 92 80 41 59 140 156 162 164 164 159 158 158 154 154 152 149 144 139 135 130 127 127 130 132 133 133 130 129 131 130 130 131 127 124 122 122 121 117 114 110 107 110 119 124 125 127 124 117 107 97 91 82 76 73 72 71 69 69 70 72 74 78 80 81 78 79 77 64 52 48 53 56
45 57 58 79 77 34 66 16 300 259 264 300 331 338 333 275 152 105 87 83 101 103 107 135 46 83 127 97 79 162 166 165 166 161 157 159 157 155 155 147 142 138 134 129 125 122 123 127 129 130 129 127 129 131 132 133 131 124 121 120 121 120 114 113 108 103 104 111 118 121 124 120 112 101 90 86 77 74 72 70 70 67 67 70 72 75 82 87 88 85 81 74 63 47 41 46 47
62 56 97 78 75 45 14 324 296 297 285 308 352 359 356 51 112 87 96 95 102 89 87 168 95 111 127 109 105 174 169 163 164 163 161 160 155 154 152 140 136 135 130 125 122 121 120 122 124 124 123 121 123 129 130 131 130 124 120 121 120 117 115 114 109 105 105 109 117 119 119 115 109 100 88 82 76 77 74 71 72 69 65 65 70 75 84 94 99 98 94 95 99 48 25 34 40
59 40 100 78 67 73 54 274 277 295 310 321 10 14 16 54 91 84 90 100 108 102 108 114 109 121 121 109 140 157 159 158 161 168 170 162 156 154 145 137 137 135 130 127 123 121 118 117 118 116 114 111 118 126 126 131 133 123 119 121 119 117 115 111 107 104 103 106 111 112 111 109 105 99 86 74 65 70 73 73 76 72 65 62 64 71 81 96 110 116 119 129 144 278 347 15 31
64 10 75 84 102 143 173 234 280 294 319 347 16 9 28 58 72 76 85 99 123 124 121 126 132 130 120 127 152 157 161 167 178 175 173 164 157 150 142 138 135 135 130 125 122 121 121 123 122 112 109 106 114 124 128 135 131 121 119 121 121 120 115 110 108 103 105 106 109 110 110 107 103 100 90 83 73 65 64 67 75 75 69 64 64 69 78 95 118 134 144 153 165 255 318 349 20
104 148 81 92 170 158 164 213 294 357 333 2 16 4 42 60 54 75 96 88 86 94 66 137 144 133 118 146 154 167 172 178 186 172 168 160 153 143 139 137 134 134 123 119 122 124 125 124 119 113 114 111 115 125 131 133 125 122 122 124 123 120 116 112 107 105 109 109 112 112 107 108 107 104 87 83 81 71 61 54 62 68 69 69 69 70 74 89 118 144 158 169 174 210 303 330 3
98 145 97 106 152 137 152 191 358 72 332 334 5 18 52 48 49 103 111 84 30 61 109 136 146 126 132 149 146 164 175 184 183 169 164 150 143 135 134 136 131 127 117 119 120 118 119 114 110 107 106 107 113 122 127 124 120 122 120 120 117 115 112 105 100 98 97 90 99 101 95 95 91 88 77 68 70 78 72 56 45 45 56 65 71 75 76 82 109 145 165 176 178 183 272 316 349
76 91 92 104 32 25 145 131 172 124 261 326 42 50 60 49 77 99 86 86 62 105 136 148 152 108 160 180 155 161 170 175 168 163 163 150 141 135 135 134 127 125 121 117 108 106 106 100 98 96 96 102 109 110 112 110 110 111 107 105 102 104 103 98 92 76 67 56 55 58 59 61 57 60 74 51 27 51 51 49 39 27 33 47 64 78 82 80 96 136 163 177 182 183 219 277 318
56 83 67 82 74 42 139 125 146 109 251 206 113 49 58 53 85 82 48 111 129 131 157 193 220 238 172 160 145 162 164 162 161 158 160 152 141 138 135 131 131 133 129 116 107 107 105 102 101 100 104 114 108 102 101 101 102 102 102 101 97 98 96 95 84 63 55 49 41 33 32 31 32 35 54 49 21 30 26 27 26 17 14 24 46 72 86 87 94 124 156 173 183 187 208 248 279
45 79 60 75 147 170 170 170 168 144 188 198 245 260 123 60 73 90 97 130 126 135 164 282 224 161 140 137 147 164 164 161 162 156 156 150 141 140 136 137 139 137 134 124 119 119 119 121 112 101 109 118 113 110 108 106 107 111 111 105 103 100 92 91 80 67 63 55 45 34 32 26 21 23 31 41 39 27 13 13 10 3 0 4 17 53 92 93 100 127 152 166 179 188 205 233 262
70 84 94 128 192 185 193 187 175 143 148 193 211 179 151 143 123 123 118 107 110 105 92 98 127 131 132 142 154 163 164 161 158 156 156 150 144 145 144 144 140 136 140 131 120 116 119 124 115 104 118 127 124 121 118 118 120 119 117 107 101 96 91 88 77 75 72 59 50 39 33 22 15 18 22 27 32 25 10 5 360 354 357 356 356 13 74 102 103 125 150 160 172 187 204 223 248
146 101 119 199 204 212 216 162 159 146 141 157 158 160 158 141 136 139 136 109 118 105 91 108 120 124 132 144 153 159 164 160 155 158 157 152 150 149 147 143 138 140 140 129 120 123 133 138 139 135 129 130 124 119 118 125 128 120 117 104 87 84 86 81 69 74 71 58 47 34 29 20 11 11 17 18 22 15 7 5 357 351 350 346 345 356 357 72 106 111 141 157 165 181 201 218 238
184 126 126 241 210 233 258 157 164 157 146 145 153 158 151 138 133 144 145 117 98 104 105 115 126 136 140 148 154 153 161 163 160 163 160 157 154 150 146 141 141 142 137 134 138 146 151 149 146 136 121 117 110 108 103 106 112 103 101 91 79 75 73 59 49 56 61 51 34 26 23 18 8 5 4 5 9 2 2 2 358 354 343 334 333 343 341 316 136 116 132 153 158 169 194 215 234
184 142 164 229 188 210 298 168 161 149 144 145 153 148 138 150 148 147 137 113 92 130 146 159 147 148 149 154 160 156 162 166 165 167 163 159 155 149 145 143 144 143 141 145 151 154 151 140 130 125 114 95 89 88 83 69 64 77 80 84 84 75 68 46 34 34 34 22 12 19 24 16 4 359 354 352 359 359 2 1 1 359 345 340 338 346 355 328 264 178 151 163 168 165 180 207 228
150 168 177 167 155 151 270 158 150 146 145 142 140 135 137 136 121 134 111 71 166 177 187 172 151 150 154 154 161 161 162 163 165 166 164 161 156 151 147 148 150 148 150 152 155 153 140 131 123 112 100 81 68 57 59 51 46 71 70 76 78 65 68 42 16 15 9 353 341 2 21 22 7 356 349 343 344 352 356 353 357 354 340 339 349 2 11 355 285 244 204 194 195 191 188 199 214
169 208 187 174 168 145 144 146 146 149 144 132 129 127 123 111 93 76 49 52 114 154 174 163 148 152 154 152 158 156 160 163 164 164 163 161 156 153 154 156 154 151 154 155 155 149 122 109 94 90 83 59 44 40 48 73 89 101 54 29 9 359 346 329 329 335 333 327 323 334 352 357 353 349 344 339 336 338 344 343 345 346 333 326 338 347 348 357 319 259 238 231 224 217 219 219 218
173 181 197 184 161 138 141 142 142 143 133 124 126 119 93 91 92 55 65 77 112 145 167 160 150 153 151 152 154 151 161 163 162 165 164 162 157 158 161 160 155 151 153 147 138 118 100 84 77 81 61 29 4 7 22 55 96 249 323 323 320 315 314 317 321 325 320 317 316 319 324 321 322 326 328 332 329 326 330 335 337 341 333 314 319 321 320 330 325 257 242 252 250 239 238 246 250
166 187 172 140 124 126 133 130 130 127 118 120 113 96 73 80 97 80 70 91 131 152 162 159 152 152 151 153 157 155 164 166 166 168 166 164 163 164 164 159 156 148 135 116 105 101 93 77 75 73 44 323 309 313 310 320 261 250 280 290 292 288 299 306 307 311 308 308 306 306 309 302 300 302 306 312 313 313 312 314 317 322 322 311 309 304 292 298 297 257 241 255 255 250 247 250 257
182 134 103 99 98 112 122 118 120 116 113 121 106 87 82 75 78 74 54 120 153 164 160 159 156 156 156 155 166 167 167 169 169 170 171 171 170 172 162 152 148 128 113 101 97 102 98 98 101 101 234 256 270 270 267 263 237 228 245 263 273 277 284 284 284 292 294 297 293 291 290 289 292 294 299 301 299 300 296 297 298 301 306 301 299 291 277 277 279 267 257 254 252 250 247 249 256
112 98 84 85 85 92 109 109 114 109 97 109 110 112 76 35 53 168 231 169 168 171 159 162 163 166 162 155 171 173 173 176 172 174 177 176 177 178 164 147 133 114 112 103 108 132 148 158 165 183 208 239 251 265 258 237 230 230 251 273 282 287 285 277 274 271 274 283 284 281 274 272 279 288 297 299 297 295 291 290 288 287 288 285 283 278 274 273 270 268 266 262 257 254 251 252 257
109 100 81 74 80 80 90 103 119 109 87 102 105 112 47 29 63 179 199 173 174 176 165 163 167 177 168 158 180 179 181 185 177 177 178 181 185 183 174 160 143 124 123 129 143 158 171 177 182 196 217 241 245 267 272 259 263 263 278 294 301 304 299 294 289 284 282 285 286 281 277 272 269 271 277 284 290 293 293 292 288 283 277 273 271 268 268 270 268 266 266 266 263 261 259 257 259
106 103 91 76 70 71 67 94 133 111 121 123 91 54 12 5 22 177 180 170 173 173 174 163 153 179 171 160 186 190 189 189 177 171 173 178 183 186 188 186 183 185 166 143 143 162 187 208 228 240 249 261 256 269 286 295 297 300 306 306 307 306 303 302 300 300 300 299 297 294 293 293 289 283 276 275 278 282 287 293 292 285 275 269 267 264 263 263 265 265 264 266 266 267 265 263 264
95 90 95 102 75 47 299 132 143 120 140 121 33 68 299 308 238 204 182 174 178 173 183 177 144 183 186 171 193 207 195 177 169 162 161 165 171 182 189 199 206 188 159 140 141 241 262 259 264 273 285 300 301 299 300 306 310 312 311 303 300 296 295 297 299 304 304 302 301 300 303 302 298 293 288 287 283 280 282 287 292 289 283 277 273 269 266 263 263 263 263 263 265 269 270 268 268
94 71 51 94 108 185 241 233 153 125 162 141 17 148 242 280 218 208 188 180 182 166 125 261 232 192 204 201 204 215 192 170 171 163 162 164 167 176 182 194 199 187 187 207 256 275 285 291 300 309 315 319 313 308 305 307 309 309 309 307 305 301 298 297 298 300 302 303 302 302 303 302 300 297 294 293 291 292 291 289 290 292 291 288 284 280 277 273 269 267 265 264 262 264 266 267 269
68 87 85 11 102 172 241 240 204 139 190 247 23 123 253 275 211 187 180 187 126 90 19 359 340 235 203 208 209 207 183 173 176 167 165 168 172 178 182 189 194 195 206 229 263 281 298 307 317 320 320 320 316 314 314 313 312 309 308 307 307 307 306 304 301 299 298 300 300 300 299 298 298 297 296 294 293 296 296 292 288 285 283 282 283 282 282 282 278 273 269 267 265 262 262 263 266
353 86 150 198 98 155 245 241 211 212 191 222 31 134 241 288 187 172 177 187 140 91 62 134 157 218 204 199 202 196 185 180 178 173 168 172 178 181 185 194 198 207 220 245 273 284 295 304 311 313 313 314 316 320 321 320 319 316 314 311 309 308 307 306 303 301 298 297 296 297 296 295 294 293 294 293 292 295 296 294 289 283 278 276 277 279 283 288 285 279 272 269 268 267 266 265 267
335 58 119 151 123 159 197 226 208 198 121 196 310 184 217 324 132 159 173 178 153 99 145 184 170 186 211 204 194 189 186 183 179 180 177 181 190 190 195 203 211 224 239 259 270 276 286 298 302 305 309 313 317 320 322 324 324 323 320 316 313 311 310 309 307 304 301 298 296 295 295 294 293 292 292 292 292 293 295 297 294 289 284 280 279 280 285 290 289 286 280 274 270 270 271 272 272
143 126 107 116 142 172 185 206 201 163 96 165 204 199 226 316 93 144 158 166 155 117 175 208 183 181 207 211 199 189 184 184 184 187 189 196 203 205 212 217 228 239 247 255 261 273 286 295 299 304 310 314 317 320 323 323 322 319 316 314 311 309 309 310 310 309 307 305 302 300 297 295 292 291 291 292 292 291 292 295 295 292 287 284 284 287 291 289 288 289 289 283 273 271 272 274 275
137 145 131 140 165 202 198 214 201 145 97 108 187 230 232 223 145 146 147 158 154 141 183 207 206 206 210 213 213 198 188 189 191 196 200 208 214 218 225 227 234 240 246 256 265 281 290 294 299 303 306 309 312 312 310 307 306 305 304 304 304 305 308 311 312 311 311 310 309 307 305 301 297 293 292 291 291 291 292 291 290 288 285 285 286 290 293 291 288 287 288 288 282 277 276 275 276
120 121 127 149 162 201 200 186 189 133 102 276 234 333 261 188 183 158 147 156 158 168 199 206 205 211 215 219 220 209 201 197 199 209 213 219 221 223 229 229 236 244 254 266 276 284 289 292 296 298 301 304 305 303 302 303 305 307 308 308 310 313 315 316 315 313 313 311 310 309 308 307 304 299 294 292 292 293 294 292 290 288 287 288 288 288 291 294 293 290 289 291 293 291 289 286 282
95 116 131 142 170 205 190 120 176 116 84 261 147 99 205 187 178 166 155 167 185 193 209 214 206 209 217 226 226 216 209 205 206 213 216 220 221 222 228 232 242 253 262 271 279 285 289 293 295 298 301 302 301 303 305 308 313 317 319 319 320 322 322 320 320 319 319 319 318 315 314 313 312 308 298 292 293 296 296 296 294 292 293 293 293 291 290 292 294 295 296 296 297 297 298 299 294
81 104 129 141 186 192 24 69 172 64 71 204 146 109 131 112 184 188 176 195 222 211 218 223 213 214 219 226 229 220 212 211 212 214 216 217 218 222 228 236 245 252 260 270 279 287 291 294 296 297 298 298 299 302 306 312 319 324 326 326 327 329 328 328 328 328 329 330 329 326 323 322 322 321 310 292 290 295 295 296 297 297 297 297 298 295 291 292 293 295 296 295 296 295 296 298 296
89 108 123 157 183 144 72 117 157 18 53 150 128 86 22 328 216 229 203 213 246 231 230 232 222 218 220 226 232 223 215 215 214 215 217 216 219 225 229 237 244 251 262 274 282 287 290 291 291 290 292 297 302 307 312 317 323 327 328 330 332 333 333 335 337 338 336 334 333 331 330 331 331 332 322 294 278 286 289 290 295 296 297 301 303 299 295 295 292 289 287 287 291 293 292 291 289
359 141 140 159 170 162 164 142 123 32 30 110 117 64 322 217 213 239 212 211 239 235 223 233 232 226 229 237 240 230 222 220 217 215 217 218 222 226 229 236 244 256 267 274 280 283 283 283 284 288 296 304 310 312 315 319 323 324 325 326 328 331 335 340 346 349 347 344 343 344 345 345 343 342 335 301 269 267 270 274 282 288 294 300 302 297 292 288 283 281 280 280 282 284 286 284 283
326 227 182 173 163 148 133 127 115 48 19 219 130 60 292 246 212 223 205 207 231 227 210 227 238 237 239 243 241 237 232 227 223 220 220 221 223 226 230 236 246 258 265 269 271 272 274 278 285 295 305 310 311 311 314 319 322 323 326 328 331 337 348 358 1 0 360 359 358 358 358 359 355 349 347 326 281 267 269 274 280 285 291 294 293 290 287 281 276 276 275 274 275 276 280 281 281
336 237 185 158 134 128 140 144 128 91 210 231 123 117 267 305 250 213 186 206 229 230 222 226 234 240 243 242 240 239 237 233 229 226 224 223 225 228 232 238 248 256 261 262 263 266 272 281 291 300 306 308 307 310 317 321 323 327 332 338 345 356 10 18 12 4 1 1 360 357 357 2 1 353 348 340 312 284 277 278 280 283 287 287 286 286 284 280 277 276 275 276 278 279 279 281 283
258 238 150 137 138 150 166 152 133 168 167 42 59 108 184 307 274 219 171 193 229 233 237 234 229 234 239 240 240 240 240 239 235 231 226 224 227 231 235 242 251 257 262 262 264 271 276 284 295 300 302 303 306 314 321 322 325 331 338 349 2 12 21 21 11 359 355 354 349 348 353 358 358 356 351 340 323 302 288 283 282 283 284 284 283 282 281 282 282 281 281 282 284 285 286 285 285
248 190 121 128 140 150 154 127 112 102 90 21 302 354 89 268 284 313 158 190 231 232 232 235 229 229 232 236 239 240 242 241 237 233 227 226 229 233 238 242 250 259 263 265 267 272 279 287 293 295 298 303 311 318 320 322 328 337 345 359 13 19 20 13 3 355 351 346 339 343 351 352 350 351 348 339 326 312 301 294 292 290 288 287 284 282 284 287 287 284 283 283 285 288 290 290 289
195 129 89 73 78 76 84 106 105 62 76 234 244 193 168 268 285 350 131 196 230 232 230 230 229 228 230 233 237 239 241 240 237 233 229 229 231 232 236 241 251 257 258 261 263 268 278 285 287 292 303 312 316 318 318 323 333 342 349 2 11 15 15 8 359 353 349 343 339 346 350 348 349 347 343 341 336 326 317 309 303 298 294 290 287 287 287 287 287 284 282 283 287 290 292 292 292
135 109 63 49 46 46 51 65 90 72 349 254 233 189 171 268 279 222 185 210 219 220 221 222 224 227 229 231 233 235 236 237 236 233 230 230 230 230 230 235 246 251 254 256 260 266 274 280 290 302 315 318 315 314 315 322 332 341 350 1 3 0 0 359 356 356 356 347 344 350 350 347 346 344 344 344 340 335 333 330 322 314 306 299 293 293 295 295 294 292 291 291 291 292 293 293 291
102 80 63 68 3 14 33 358 44 89 261 258 239 178 154 208 267 235 227 245 238 215 215 209 206 217 224 228 229 229 229 231 231 230 229 227 226 224 220 224 235 247 254 253 254 261 270 285 302 312 318 316 311 309 310 317 331 346 357 359 356 353 352 350 349 354 355 350 347 345 346 346 341 338 341 342 342 344 347 350 347 339 331 322 312 306 303 302 300 297 297 296 295 294 294 297 301
75 68 69 85 355 4 16 325 9 173 242 254 228 165 161 223 252 244 238 249 249 230 227 221 207 209 217 223 226 226 225 226 227 226 226 225 222 218 215 219 227 242 252 246 247 256 272 297 309 316 318 312 304 303 305 315 332 349 356 354 352 352 350 346 344 347 347 347 347 344 342 343 339 337 336 339 348 356 357 358 359 356 352 346 343 338 330 327 322 313 306 301 298 298 301 308 319
66 109 103 100 95 60 296 271 311 266 258 293 284 241 233 276 266 230 225 244 252 246 240 237 229 218 217 220 222 222 222 223 225 224 223 223 218 211 213 218 222 235 245 240 245 257 278 304 312 318 318 307 301 303 309 321 334 343 348 348 346 344 343 341 340 342 341 342 344 345 343 341 336 334 332 336 348 356 357 360 2 5 5 2 359 353 349 349 347 342 333 327 321 315 315 312 294
60 153 129 131 154 139 223 228 204 251 266 302 304 262 180 224 254 228 238 267 273 262 252 247 244 237 224 219 218 218 221 222 223 222 221 222 218 211 216 221 221 229 237 239 248 260 282 309 327 337 331 311 305 309 314 324 336 343 344 342 336 330 329 335 339 339 338 339 341 343 343 341 335 330 328 334 344 350 354 358 1 4 8 9 7 360 353 345 347 5 3 352 355 355 350 352 345
288 168 105 111 188 139 120 186 175 183 277 284 277 235 212 220 260 283 295 305 309 281 256 245 243 240 226 216 215 216 219 221 221 220 218 219 217 215 221 224 221 223 232 240 244 248 261 300 342 355 352 327 314 319 320 325 336 338 330 325 322 317 319 333 339 337 336 339 343 345 346 345 342 334 328 332 341 349 353 354 355 357 359 3 6 9 11 3 358 12 5 359 12 22 24 33 38
239 114 192 234 169 116 109 182 33 69 90 272 273 263 292 320 297 313 344 343 345 346 277 240 236 231 218 215 216 215 218 220 221 221 218 216 214 216 222 223 219 220 235 242 237 234 240 278 342 358 1 343 327 331 329 325 326 327 323 320 316 310 324 341 341 338 339 343 347 350 352 350 345 339 334 336 343 350 349 345 346 349 348 351 0 7 7 7 2 348 347 359 19 29 29 40 55
75 292 222 203 113 91 106 127 12 42 191 276 324 269 293 349 306 317 349 329 311 331 326 259 226 216 216 219 218 219 220 222 223 223 220 216 213 216 221 220 216 218 235 239 233 230 232 259 325 345 355 347 334 332 331 325 322 327 332 329 320 321 352 357 344 340 342 347 351 351 351 349 345 343 341 341 341 341 340 339 339 343 346 350 357 353 347 358 3 356 357 3 11 18 15 22 45
92 201 173 111 120 184 62 113 98 40 244 285 314 298 268 207 226 290 309 265 261 288 302 269 213 210 217 220 218 219 221 222 224 224 223 219 215 217 220 217 211 214 227 230 231 233 231 239 282 313 334 336 332 329 327 325 324 331 338 336 332 349 6 359 342 339 343 346 348 346 346 345 344 344 342 339 338 339 339 339 341 347 354 357 358 348 340 350 360 7 14 9 10 14 4 5 28
31 75 41 32 138 164 172 139 160 177 191 255 306 329 281 229 219 215 237 239 226 225 240 234 221 218 220 220 218 218 221 224 227 227 227 223 217 217 218 212 206 214 226 228 232 236 231 230 253 282 304 315 324 325 322 321 322 330 335 330 324 341 5 350 336 337 341 341 341 341 343 344 346 346 343 341 340 342 344 347 353 360 2 5 5 354 349 356 11 26 22 9 19 9 352 354 5
7 38 320 313 90 132 193 28 100 139 156 182 241 303 273 249 210 192 229 242 214 204 210 220 224 224 225 224 221 221 224 226 230 232 232 227 220 218 216 208 204 215 224 227 233 236 231 229 245 269 286 299 313 318 318 316 316 325 328 319 305 316 348 336 331 335 336 336 338 339 341 345 349 347 344 345 344 345 352 358 4 5 1 3 4 3 11 18 28 38 16 8 14 350 347 360 6
158 170 208 183 147 142 154 302 316 99 136 163 159 245 271 260 210 210 234 235 221 220 215 219 226 225 226 228 226 227 228 230 233 234 234 231 224 219 213 205 205 213 219 224 232 234 229 230 243 263 278 290 301 308 312 310 309 319 321 302 275 268 286 297 316 328 329 332 334 336 340 343 344 341 340 343 345 348 355 359 359 356 352 354 358 10 29 26 21 22 353 342 342 339 352 2 360